Regional Weather Roundup
Issued by NWS Goodland, KS

Home | Current Version | Previous Version | Graphics & Text | Print | Product List | Glossary On
Versions: 1 2 3 4 5 6 7 8 9 10 11 12 13 14 15 16 17 18 19 20 21 22 23 24 25 26 27 28 29 30 31 32 33 34 35 36 37 38 39 40 41 42 43 44 45 46 47 48 49 50
000
ASUS43 KGLD 231208
RWRGLD

GOODLAND FORECAST AREA HOURLY WEATHER ROUNDUP
NATIONAL WEATHER SERVICE GOODLAND KS
600 AM MDT SAT JUL 23 2016

...OFFICIAL OBSERVATIONS...

CITY           SKY/WX    TMP DP  RH WIND       PRES   REMARKS
GOODLAND KS    MOCLDY    68  65  90 E8        29.97R
HILL CITY KS   LGT RAIN  73  68  84 E16G24    29.90F
IMPERIAL NEB   CLOUDY    72  63  73 S13       29.93R
MCCOOK NEB     CLOUDY    77  63  61 S18G25    29.86F
AKRON CO       CLOUDY    67  60  78 S10       30.04R
BURLINGTON CO  CLOUDY    66  59  78 NE5       30.00S
LIMON CO       CLEAR     60  49  66 VRB3      30.09R
$$

...UNOFFICIAL OBSERVATIONS...

CITY           SKY/WX    TMP DP  RH WIND       PRES   REMARKS
COLBY KS       CLEAR     70  70 100 E5        29.97S
LENORA KS        N/A     72  32  23 MISG        N/A
NORTON KS      CLEAR     73  63  68 SE10G20   29.89F
$$



USA.gov is the U.S. government's official web portal to all federal, state and local government web resources and services.